Tracking 19176 objects as of 27-May-2018
HD Live streaming from Space Station
objects crossing your sky now

FENGYUN 1C DEB

Track FENGYUN 1C DEB now!
10-day predictions


NORAD ID: 30154
Int'l Code: 1999-025TK
Perigee: 836.1 km
Apogee: 1,125.9 km
Inclination: 98.5 °
Period: 104.6 minutes
Semi major axis: 7351 km
RCS: 0.025 m2 (small)
Launch date: May 10, 1999
Source: People's Republic of China (PRC)
Launch site: Taiyaun Space Center, China (TSC)

Note: This is SATELLITE DEBRIS
aabbcc
Your satellite tracking list
Your tracking list is empty




NASA's NSSDC Master Catalog

Two Line Element Set (TLE):
1 30154U 99025TK  18146.76138278 +.00000538 +00000-0 +50194-3 0  9998
2 30154 098.4848 079.6361 0197126 124.8405 300.0971 13.77195701569627
Source of the keplerian elements: AFSPC